| time (UTC) | temp C | wind direction | speed KPH | gust KPH | rain 1hr cm | rain 24hr cm | rain mn cm | humidity % | barometer mb |
| 20260504044539 | 7 | 6 | 0.0 | 1.6 | 0.00 | 0.00 | 0.00 | 73 | 1007.6 |
| 20260504043036 | 7 | 6 | 0.0 | 0.0 | 0.00 | 0.00 | 0.00 | 72 | 1007.5 |
| 20260504041541 | 7 | 4 | 0.0 | 0.0 | 0.00 | 0.00 | 0.00 | 70 | 1007.7 |
| 20260504040037 | 8 | 4 | 0.0 | 1.6 | 0.00 | 0.00 | 0.00 | 69 | 1007.7 |
| 20260504034529 | 8 | 115 | 0.0 | 3.2 | 0.00 | 0.00 | 0.00 | 68 | 1007.9 |
| 20260504033027 | 8 | 115 | 0.0 | 0.0 | 0.00 | 0.00 | 0.00 | 68 | 1008.0 |
| 20260504031524 | 8 | 338 | 1.6 | 4.8 | 0.00 | 0.00 | 0.00 | 68 | 1008.1 |
| 20260504030024 | 8 | 262 | 0.0 | 0.0 | 0.00 | 0.00 | 0.00 | 68 | 1008.2 |
| 20260504024524 | 8 | 262 | 0.0 | 0.0 | 0.00 | 0.00 | 0.00 | 67 | 1008.2 |
| 20260504023021 | 8 | 262 | 0.0 | 0.0 | 0.00 | 0.00 | 0.00 | 67 | 1008.1 |
| 20260504021518 | 9 | 262 | 0.0 | 1.6 | 0.00 | 0.00 | 0.00 | 66 | 1008.3 |
| 20260504020031 | 9 | 244 | 0.0 | 1.6 | 0.00 | 0.00 | 0.00 | 65 | 1008.3 |
| 20260504014514 | 10 | 230 | 0.0 | 1.6 | 0.00 | 0.00 | 0.00 | 64 | 1008.5 |
| 20260504013012 | 10 | 231 | 0.0 | 1.6 | 0.00 | 0.00 | 0.00 | 64 | 1008.6 |
| 20260504011509 | 10 | 260 | 0.0 | 1.6 | 0.00 | 0.00 | 0.00 | 63 | 1008.7 |
| 20260504010010 | 10 | 260 | 1.6 | 6.4 | 0.00 | 0.00 | 0.00 | 63 | 1008.7 |
| 20260504004510 | 10 | 99 | 0.0 | 0.0 | 0.00 | 0.00 | 0.00 | 65 | 1008.8 |
| 20260504003004 | 10 | 86 | 0.0 | 0.0 | 0.00 | 0.00 | 0.00 | 65 | 1008.9 |
| 20260504001508 | 10 | 84 | 0.0 | 0.0 | 0.00 | 0.00 | 0.00 | 64 | 1008.9 |
| 20260504000001 | 10 | 85 | 0.0 | 0.0 | 0.00 | 0.00 | 0.00 | 63 | 1009.0 |
| 20260503234600 | 11 | 46 | 0.0 | 0.0 | 0.00 | 0.00 | 0.00 | 64 | 1008.9 |
| 20260503233057 | 11 | 45 | 0.0 | 0.0 | 0.00 | 0.00 | 0.00 | 64 | 1009.0 |
| 20260503231556 | 11 | 47 | 0.0 | 1.6 | 0.00 | 0.00 | 0.00 | 63 | 1009.1 |
| 20260503230105 | 11 | 28 | 1.6 | 4.8 | 0.00 | 0.00 | 0.00 | 63 | 1009.2 |
| 20260503224601 | 11 | 32 | 1.6 | 6.4 | 0.00 | 0.00 | 0.00 | 63 | 1009.3 |
| 20260503223050 | 11 | 32 | 3.2 | 6.4 | 0.00 | 0.00 | 0.00 | 63 | 1009.3 |
| 20260503221559 | 11 | 49 | 3.2 | 6.4 | 0.00 | 0.00 | 0.00 | 62 | 1009.4 |
| 20260503220048 | 11 | 37 | 1.6 | 6.4 | 0.00 | 0.00 | 0.00 | 63 | 1009.6 |
| 20260503214546 | 11 | 51 | 3.2 | 6.4 | 0.00 | 0.00 | 0.00 | 63 | 1009.4 |
| 20260503213047 | 11 | 79 | 3.2 | 8.0 | 0.00 | 0.00 | 0.00 | 64 | 1009.3 |
| 20260503211544 | 11 | 51 | 4.8 | 8.0 | 0.00 | 0.00 | 0.00 | 64 | 1009.4 |
| 20260503210044 | 11 | 47 | 4.8 | 8.0 | 0.00 | 0.00 | 0.00 | 64 | 1009.4 |
| 20260503204553 | 12 | 25 | 1.6 | 8.0 | 0.00 | 0.00 | 0.00 | 66 | 1009.3 |
| 20260503203045 | 12 | 341 | 0.0 | 3.2 | 0.00 | 0.00 | 0.00 | 65 | 1009.1 |
| 20260503201543 | 12 | 349 | 0.0 | 4.8 | 0.00 | 0.00 | 0.00 | 65 | 1008.9 |
| 20260503200042 | 12 | 321 | 0.0 | 3.2 | 0.00 | 0.00 | 0.00 | 65 | 1008.6 |
| 20260503194545 | 12 | 338 | 0.0 | 3.2 | 0.00 | 0.00 | 0.00 | 66 | 1008.4 |
| 20260503193046 | 12 | 20 | 0.0 | 0.0 | 0.00 | 0.00 | 0.00 | 65 | 1008.2 |
| 20260503191604 | 12 | 21 | 0.0 | 0.0 | 0.00 | 0.00 | 0.00 | 65 | 1008.1 |
| 20260503190039 | 12 | 42 | 3.2 | 4.8 | 0.00 | 0.00 | 0.00 | 64 | 1008.0 |
| 20260503184539 | 13 | 352 | 0.0 | 4.8 | 0.00 | 0.00 | 0.00 | 62 | 1007.9 |
| 20260503183038 | 13 | 354 | 6.4 | 11.3 | 0.00 | 0.00 | 0.00 | 61 | 1007.8 |
| 20260503181547 | 15 | 299 | 8.0 | 20.9 | 0.00 | 0.00 | 0.00 | 46 | 1007.6 |
| 20260503180040 | 15 | 319 | 6.4 | 14.5 | 0.00 | 0.00 | 0.00 | 43 | 1007.4 |
| 20260503174545 | 15 | 245 | 6.4 | 12.9 | 0.00 | 0.00 | 0.00 | 40 | 1007.3 |
| 20260503173037 | 15 | 256 | 6.4 | 17.7 | 0.00 | 0.00 | 0.00 | 38 | 1007.2 |
| 20260503171535 | 15 | 292 | 9.7 | 20.9 | 0.00 | 0.00 | 0.00 | 37 | 1007.1 |
| 20260503081536 | 11 | 44 | 1.6 | 12.9 | 0.00 | 0.00 | 0.00 | 83 | 1010.1 |